COSMOS 2161

导读

COSMOS 2161是独联体(CIS)继承自苏联航天遗产后,于1991年9月28日发射入轨的“宇宙”系列卫星。作为冷战末期苏联航天活动的收尾产物,它延续了该系列军用侦察与技术试验的传统,承载着空间态势感知任务。入轨后长期运行在近地轨道,是独联体初期维持航天运行的典型代表,见证了苏联解体前后航天事业的过渡与延续。

基本信息
目录编号:
21732
目录名称:
COSMOS 2161
国际标识:
1991-068E
轨道中心:
EARTH
卫星名称:
COSMOS 2161
卫星全名:
--
卫星状态:
在轨 (已飞行12722 天)
发射日期:
1991-09-28 UTC
国别 :
俄罗斯(独联体) (CIS)
星等 :
--
轨道信息
数据来源 国际轨道数据 AOE轨道数据
星历时间 2026-07-28T11:34:06+0800
19小时前
查看轨道信息
2026-07-26T23:00:00+0800
2天前
查看轨道信息
半长轴 7779.367km 7779.365km
偏心率 0.0009938 0.0009917
轨道倾角 82.574° 82.575°
近地点辐角 236.118° 239.614°
升交点赤经 258.609° 259.587°
平近点角 178.773° 78.367°
近地点 1393.498km 1393.513km
远地点 1408.962km 1408.943km
周期 113.809分钟 113.809分钟
每日圈数 12.652794 12.652798
详细信息
使用方式:
暂无
2D轨道图
3D轨道图
轨道高度分析图
轨道倾角分析图
轨道综合分析图
查看轨道综合分析图